Project,Study,Ord_Occ,Event_Num,Cast_ID,Date_Time_UTC,Date_Time_PST,Lat_Dec,Lon_Dec,Sta_ID,Line,Sta,Depth,Pressure,PrQ,Temp1,Temp1Q,Temp2,Temp2Q,TempAve,Salt1,Salt1Q,Salt1_Corr,Salt2,Salt2Q,Salt2_Corr,SaltAve_Corr,Ox1,Ox1Q,Ox1_CruiseCorr,Ox1_StaCorr,Ox2,Ox2Q,Ox2_CruiseCorr,Ox2_StaCorr,OxAve_StaCorr,Ox1uM,Ox1uM_CruiseCorr,Ox1uM_StaCorr,Ox2uM,Ox2uM_CruiseCorr,Ox2uM_StaCorr,OxAveuM_StaCorr,FluorV,FluorQ,EstChl_CruiseCorr,EstChl_StaCorr,ISUSV,ISUSQ,EstNO3_CruiseCorr,EstNO3_StaCorr,SigThetaTS1,SigThetaTS1Q,SigThetaTS2,SigThetaTS2Q,BAT,XMiss,TransQ,pH,pHQ,SPAR,SPARQ,PAR,PARQ,PoT1,PoT2,DynHt,SVA,OxSat1,OxSat2,BTL_Depth,BTL_Temp,SaltB,OxB,OxBuM,Chl-a,Phaeo,NO3,NO2,NH4,PO4,SIL
CalCOFI,2101RL,029,,2101_029d,22-Jan-2021 21:02:20,22-Jan-2021 13:02:20,33.41776,-117.90355,090.0 030.0,090.0,030.0,4.000,4.029,,15.6792,,15.6795,,15.6794,33.5990,,33.6048,33.5956,,33.5976,33.6012,5.5515,,5.8101,5.7223,5.4708,,5.8085,5.6843,5.7033,241.945,253.5282,209.1575,238.425,269.4990,206.9339,208.0457,0.0520,,0.1779,0.2918, ,, , ,24.7424,,24.7397,,0.8623,80.6077,,,,1.5758E+03,,1.5049E+01,,15.6785,15.6789,0.0027,319.424,97.997,96.570,3,,33.5937,5.801,252.93,0.432,0.082,,,,,
CalCOFI,2101RL,029,,2101_029d,22-Jan-2021 21:02:31,22-Jan-2021 13:02:31,33.41776,-117.90354,090.0 030.0,090.0,030.0,5.000,5.036,,15.6802,,15.6812,,15.6807,33.5991,,33.6049,33.5957,,33.5977,33.6013,5.5513,,5.8099,5.7221,5.4865,,5.8252,5.7007,5.7114,241.933,253.5157,209.1480,239.113,269.4857,207.4852,208.3166,0.0521,,0.1787,0.2929, ,, , ,24.7423,,24.7395,,0.8628,80.5983,,,,1.7346E+03,,7.2920E+00,,15.6795,15.6804,0.0068,319.462,97.995,96.852,,,,,,,,,,,,
CalCOFI,2101RL,029,,2101_029d,22-Jan-2021 21:02:32,22-Jan-2021 13:02:32,33.41776,-117.90354,090.0 030.0,090.0,030.0,6.000,6.043,,15.6867,,15.6868,,15.6868,33.5993,,33.6051,33.5960,,33.5980,33.6016,5.5554,,5.8142,5.7263,5.4874,,5.8262,5.7016,5.7140,242.114,253.7051,209.2925,239.151,269.6870,207.5157,208.4041,0.0517,,0.1754,0.2884, ,, , ,24.7410,,24.7385,,0.8619,80.6170,,,,1.4513E+03,,6.0980E+00,,15.6858,15.6858,0.0100,319.617,98.080,96.878,,,,,,,,,,,,
CalCOFI,2101RL,029,,2101_029d,22-Jan-2021 21:02:34,22-Jan-2021 13:02:34,33.41776,-117.90354,090.0 030.0,090.0,030.0,7.000,7.050,,15.6818,,15.6816,,15.6817,33.5992,,33.6050,33.5958,,33.5978,33.6014,5.5441,,5.8024,5.7147,5.5126,,5.8529,5.7280,5.7214,241.620,253.1880,208.8980,240.250,269.1376,208.3963,208.6472,0.0533,,0.1885,0.3063, ,, , ,24.7421,,24.7395,,0.8617,80.6210,,,,1.2022E+03,,5.5716E+00,,15.6807,15.6805,0.0132,319.551,97.871,97.313,,,,,,,,,,,,
CalCOFI,2101RL,029,,2101_029d,22-Jan-2021 21:02:37,22-Jan-2021 13:02:37,33.41776,-117.90354,090.0 030.0,090.0,030.0,8.000,8.057,,15.6791,,15.6785,,15.6788,33.5991,,33.6049,33.5956,,33.5976,33.6013,5.5412,,5.7993,5.7117,5.5022,,5.8419,5.7171,5.7144,241.496,253.0582,208.7989,239.795,268.9997,208.0317,208.4153,0.0567,,0.2164,0.3425, ,, , ,24.7426,,24.7401,,0.8616,80.6222,,,,1.4290E+03,,5.5102E+00,,15.6779,15.6773,0.0164,319.530,97.815,97.123,,,,,,,,,,,,
CalCOFI,2101RL,029,,2101_029d,22-Jan-2021 21:02:39,22-Jan-2021 13:02:39,33.41776,-117.90352,090.0 030.0,090.0,030.0,9.000,9.064,,15.6691,,15.6601,,15.6646,33.5994,,33.6052,33.5956,,33.5976,33.6014,5.5392,,5.7972,5.7097,5.5080,,5.8480,5.7232,5.7165,241.408,252.9661,208.7287,240.046,268.9019,208.2329,208.4808,0.0618,,0.2582,0.3914, ,, , ,24.7451,,24.7442,,0.8637,80.5786,,,,1.6784E+03,,4.9482E+00,,15.6677,15.6587,0.0196,319.322,97.761,97.190,,,,,,,,,,,,
CalCOFI,2101RL,029,,2101_029d,22-Jan-2021 21:02:43,22-Jan-2021 13:02:43,33.41776,-117.90352,090.0 030.0,090.0,030.0,10.000,10.072,,15.6392,,15.6357,,15.6375,33.5995,,33.6053,33.5956,,33.5976,33.6015,5.5527,,5.8114,5.7236,5.5005,,5.8401,5.7153,5.7195,241.995,253.5806,209.1975,239.721,269.5546,207.9724,208.5850,0.0618,,0.2582,0.3914, ,, , ,24.7520,,24.7497,,0.8646,80.5609,,,,1.3933E+03,,3.7283E+00,,15.6377,15.6341,0.0228,318.702,97.942,97.012,,,,,,,,,,,,
CalCOFI,2101RL,029,,2101_029d,22-Jan-2021 21:02:44,22-Jan-2021 13:02:44,33.41775,-117.90352,090.0 030.0,090.0,030.0,11.000,11.079,,15.6368,,15.6373,,15.6371,33.5989,,33.6047,33.5954,,33.5974,33.6011,5.5352,,5.7930,5.7055,5.4971,,5.8365,5.7118,5.7087,241.230,252.7798,208.5865,239.570,268.7039,207.8514,208.2190,0.0659,,0.2918,0.4261, ,, , ,24.7520,,24.7492,,0.8638,80.5786,,,,1.5095E+03,,3.5007E+00,,15.6351,15.6356,0.0260,318.730,97.627,96.954,11,,33.5908,5.787,252.32,0.483,0.091,,,,,
CalCOFI,2101RL,029,,2101_029d,22-Jan-2021 21:02:46,22-Jan-2021 13:02:46,33.41774,-117.90352,090.0 030.0,090.0,030.0,12.000,12.086,,15.6361,,15.6360,,15.6361,33.5990,,33.6048,33.5954,,33.5974,33.6011,5.5420,,5.8002,5.7125,5.4997,,5.8392,5.7145,5.7135,241.530,253.0938,208.8261,239.683,269.0375,207.9420,208.3841,0.0664,,0.2959,0.4301, ,, , ,24.7523,,24.7496,,0.8643,80.5671,,,,1.4991E+03,,3.1050E+00,,15.6343,15.6341,0.0293,318.734,97.747,96.997,,,,,,,,,,,,
CalCOFI,2101RL,029,,2101_029d,22-Jan-2021 21:02:48,22-Jan-2021 13:02:48,33.41774,-117.90352,090.0 030.0,090.0,030.0,13.000,13.093,,15.6340,,15.6347,,15.6344,33.5989,,33.6047,33.5955,,33.5975,33.6011,5.5339,,5.7917,5.7042,5.5026,,5.8423,5.7175,5.7109,241.173,252.7201,208.5410,239.811,268.6406,208.0445,208.2928,0.0706,,0.3303,0.4608, ,, , ,24.7528,,24.7500,,0.8656,80.5413,,,,1.6285E+03,,2.8697E+00,,15.6320,15.6327,0.0325,318.722,97.599,97.047,,,,,,,,,,,,
CalCOFI,2101RL,029,,2101_029d,22-Jan-2021 21:02:54,22-Jan-2021 13:02:54,33.41774,-117.90352,090.0 030.0,090.0,030.0,14.000,14.100,,15.6353,,15.6352,,15.6353,33.5990,,33.6048,33.5957,,33.5977,33.6013,5.5530,,5.8117,5.7239,5.4987,,5.8382,5.7134,5.7187,242.005,253.5910,209.2055,239.641,269.5658,207.9083,208.5569,0.0713,,0.3360,0.4656, ,, , ,24.7525,,24.7500,,0.8637,80.5800,,,,1.4811E+03,,2.0603E+00,,15.6332,15.6330,0.0357,318.774,97.938,96.979,,,,,,,,,,,,
CalCOFI,2101RL,029,,2101_029d,22-Jan-2021 21:03:03,22-Jan-2021 13:03:03,33.41774,-117.90354,090.0 030.0,090.0,030.0,15.000,15.108,,15.6309,,15.6310,,15.6310,33.5993,,33.6051,33.5959,,33.5979,33.6015,5.5392,,5.7972,5.7097,5.5032,,5.8429,5.7181,5.7139,241.405,252.9630,208.7263,239.838,268.8985,208.0662,208.3963,0.0755,,0.3705,0.4913, ,, , ,24.7538,,24.7512,,0.8640,80.5744,,,,1.6558E+03,,1.8183E+00,,15.6286,15.6286,0.0390,318.688,97.687,97.051,,,,,,,,,,,,
CalCOFI,2101RL,029,,2101_029d,22-Jan-2021 21:03:09,22-Jan-2021 13:03:09,33.41774,-117.90354,090.0 030.0,090.0,030.0,16.000,16.115,,15.6150,,15.6140,,15.6145,33.5996,,33.6054,33.5963,,33.5983,33.6019,5.5494,,5.8079,5.7202,5.4961,,5.8354,5.7107,5.7155,241.848,253.4267,209.0801,239.528,269.3912,207.8178,208.4490,0.0768,,0.3811,0.4984, ,, , ,24.7576,,24.7553,,0.8638,80.5770,,,,1.5288E+03,,1.4485E+00,,15.6126,15.6116,0.0422,318.356,97.836,96.893,,,,,,,,,,,,
CalCOFI,2101RL,029,,2101_029d,22-Jan-2021 21:03:16,22-Jan-2021 13:03:16,33.41774,-117.90354,090.0 030.0,090.0,030.0,17.000,17.122,,15.5968,,15.5954,,15.5961,33.5999,,33.6057,33.5966,,33.5986,33.6022,5.5522,,5.8108,5.7230,5.4871,,5.8258,5.7013,5.7122,241.968,253.5523,209.1759,239.134,269.5246,207.5020,208.3390,0.0816,,0.4204,0.5210, ,, , ,24.7619,,24.7597,,0.8656,80.5410,,,,1.8764E+03,,1.5289E+00,,15.5941,15.5928,0.0454,317.974,97.850,96.699,,,,,,,,,,,,
CalCOFI,2101RL,029,,2101_029d,22-Jan-2021 21:03:19,22-Jan-2021 13:03:19,33.41774,-117.90356,090.0 030.0,090.0,030.0,18.000,18.129,,15.5928,,15.5933,,15.5931,33.5999,,33.6057,33.5964,,33.5984,33.6021,5.5430,,5.8012,5.7136,5.4998,,5.8393,5.7146,5.7141,241.570,253.1357,208.8580,239.686,269.0820,207.9444,208.4012,0.0844,,0.4434,0.5316, ,, , ,24.7629,,24.7601,,0.8639,80.5760,,,,1.6283E+03,,1.1706E+00,,15.5900,15.5906,0.0486,317.914,97.681,96.918,,,,,,,,,,,,
CalCOFI,2101RL,029,,2101_029d,22-Jan-2021 21:03:25,22-Jan-2021 13:03:25,33.41774,-117.90356,090.0 030.0,090.0,030.0,19.000,19.136,,15.5900,,15.5904,,15.5902,33.5998,,33.6056,33.5963,,33.5983,33.6020,5.5337,,5.7915,5.7040,5.4965,,5.8358,5.7111,5.7076,241.163,252.7096,208.5330,239.543,268.6294,207.8298,208.1814,0.0865,,0.4606,0.5383, ,, , ,24.7634,,24.7607,,0.8633,80.5884,,,,1.8174E+03,,1.1177E+00,,15.5871,15.5875,0.0518,317.895,97.512,96.855,,,,,,,,,,,,
CalCOFI,2101RL,029,,2101_029d,22-Jan-2021 21:03:28,22-Jan-2021 13:03:28,33.41774,-117.90356,090.0 030.0,090.0,030.0,20.000,20.144,,15.5895,,15.5900,,15.5898,33.5997,,33.6055,33.5963,,33.5983,33.6019,5.5363,,5.7942,5.7067,5.4854,,5.8240,5.6996,5.7032,241.278,252.8300,208.6248,239.056,268.7573,207.4395,208.0322,0.0871,,0.4655,0.5400, ,, , ,24.7635,,24.7608,,0.8631,80.5923,,,,1.6153E+03,,8.4118E-01,,15.5865,15.5869,0.0550,317.915,97.557,96.657,20,,33.5853,5.769,251.52,0.626,0.166,,,,,
CalCOFI,2101RL,029,,2101_029d,22-Jan-2021 21:03:31,22-Jan-2021 13:03:31,33.41774,-117.90356,090.0 030.0,090.0,030.0,21.000,21.151,,15.5892,,15.5886,,15.5889,33.5997,,33.6055,33.5963,,33.5983,33.6019,5.5394,,5.7974,5.7099,5.4846,,5.8232,5.6987,5.7043,241.412,252.9703,208.7319,239.026,268.9063,207.4155,208.0737,0.0898,,0.4876,0.5467, ,, , ,24.7636,,24.7611,,0.8625,80.6028,,,,1.3609E+03,,7.2575E-01,,15.5860,15.5854,0.0582,317.943,97.611,96.642,,,,,,,,,,,,
CalCOFI,2101RL,029,,2101_029d,22-Jan-2021 21:03:35,22-Jan-2021 13:03:35,33.41774,-117.90356,090.0 030.0,090.0,030.0,22.000,22.158,,15.5825,,15.5832,,15.5829,33.5991,,33.6049,33.5957,,33.5977,33.6013,5.5439,,5.8021,5.7145,5.4752,,5.8132,5.6889,5.7017,241.605,253.1723,208.8860,238.615,269.1209,207.0862,207.9861,0.0969,,0.5458,0.5556, ,, , ,24.7647,,24.7619,,0.8647,80.5593,,,,1.6113E+03,,7.6313E-01,,15.5791,15.5798,0.0614,317.872,97.675,96.466,,,,,,,,,,,,
CalCOFI,2101RL,029,,2101_029d,22-Jan-2021 21:03:38,22-Jan-2021 13:03:38,33.41774,-117.90356,090.0 030.0,090.0,030.0,23.000,23.165,,15.5808,,15.5811,,15.5810,33.5989,,33.6047,33.5956,,33.5976,33.6012,5.5365,,5.7944,5.7069,5.4743,,5.8123,5.6880,5.6975,241.285,252.8373,208.6304,238.576,268.7651,207.0549,207.8427,0.0994,,0.5663,0.5558, ,, , ,24.7649,,24.7623,,0.8642,80.5692,,,,1.5598E+03,,6.3732E-01,,15.5773,15.5775,0.0646,317.874,97.542,96.446,,,,,,,,,,,,
CalCOFI,2101RL,029,,2101_029d,22-Jan-2021 21:03:42,22-Jan-2021 13:03:42,33.41774,-117.90356,090.0 030.0,090.0,030.0,24.000,24.173,,15.5786,,15.5791,,15.5789,33.5988,,33.6046,33.5955,,33.5975,33.6011,5.5243,,5.7816,5.6943,5.4895,,5.8284,5.7038,5.6991,240.754,252.2815,208.2063,239.239,268.1746,207.5862,207.8963,0.1022,,0.5892,0.5542, ,, , ,24.7654,,24.7627,,0.8632,80.5898,,,,1.7823E+03,,7.6066E-01,,15.5749,15.5754,0.0678,317.867,97.323,96.710,,,,,,,,,,,,
CalCOFI,2101RL,029,,2101_029d,22-Jan-2021 21:03:44,22-Jan-2021 13:03:44,33.41774,-117.90356,090.0 030.0,090.0,030.0,25.000,25.180,,15.5783,,15.5786,,15.5785,33.5988,,33.6046,33.5955,,33.5975,33.6011,5.5236,,5.7809,5.6936,5.4870,,5.8257,5.7012,5.6974,240.723,252.2490,208.1816,239.127,268.1402,207.4964,207.8390,0.1021,,0.5884,0.5543, ,, , ,24.7655,,24.7628,,0.8658,80.5373,,,,1.9545E+03,,6.5642E-01,,15.5745,15.5748,0.0710,317.885,97.311,96.664,,,,,,,,,,,,
CalCOFI,2101RL,029,,2101_029d,22-Jan-2021 21:03:47,22-Jan-2021 13:03:47,33.41774,-117.90356,090.0 030.0,090.0,030.0,26.000,26.187,,15.5778,,15.5783,,15.5781,33.5988,,33.6046,33.5955,,33.5975,33.6011,5.5260,,5.7834,5.6961,5.4691,,5.8067,5.6825,5.6893,240.829,252.3600,208.2662,238.347,268.2580,206.8714,207.5688,0.1023,,0.5901,0.5541, ,, , ,24.7657,,24.7629,,0.8624,80.6071,,,,1.5428E+03,,4.3226E-01,,15.5738,15.5743,0.0742,317.900,97.352,96.348,,,,,,,,,,,,
CalCOFI,2101RL,029,,2101_029d,22-Jan-2021 21:03:49,22-Jan-2021 13:03:49,33.41774,-117.90356,090.0 030.0,090.0,030.0,27.000,27.194,,15.5779,,15.5783,,15.5781,33.5990,,33.6048,33.5956,,33.5976,33.6012,5.5299,,5.7875,5.7001,5.4702,,5.8079,5.6837,5.6919,240.995,252.5338,208.3988,238.394,268.4426,206.9091,207.6540,0.1026,,0.5925,0.5538, ,, , ,24.7658,,24.7631,,0.8623,80.6076,,,,1.6820E+03,,4.8445E-01,,15.5737,15.5741,0.0774,317.922,97.420,96.367,,,,,,,,,,,,
CalCOFI,2101RL,029,,2101_029d,22-Jan-2021 21:03:52,22-Jan-2021 13:03:52,33.41774,-117.90356,090.0 030.0,090.0,030.0,28.000,28.202,,15.5772,,15.5777,,15.5775,33.5990,,33.6048,33.5956,,33.5976,33.6012,5.5325,,5.7902,5.7028,5.4679,,5.8055,5.6813,5.6921,241.108,252.6521,208.4891,238.296,268.5683,206.8305,207.6598,0.1017,,0.5851,0.5546, ,, , ,24.7660,,24.7632,,0.8625,80.6047,,,,2.1009E+03,,3.6057E-01,,15.5729,15.5734,0.0807,317.935,97.464,96.326,,,,,,,,,,,,
CalCOFI,2101RL,029,,2101_029d,22-Jan-2021 21:03:54,22-Jan-2021 13:03:54,33.41774,-117.90356,090.0 030.0,090.0,030.0,29.000,29.209,,15.5737,,15.5740,,15.5739,33.5988,,33.6046,33.5954,,33.5974,33.6010,5.5338,,5.7916,5.7041,5.4631,,5.8004,5.6763,5.6902,241.166,252.7128,208.5354,238.086,268.6328,206.6622,207.5988,0.1037,,0.6015,0.5526, ,, , ,24.7666,,24.7640,,0.8615,80.6237,,,,1.8110E+03,,9.0389E-02,,15.5692,15.5695,0.0839,317.905,97.481,96.234,,,,,,,,,,,,
CalCOFI,2101RL,029,,2101_029d,22-Jan-2021 21:03:57,22-Jan-2021 13:03:57,33.41774,-117.90356,090.0 030.0,090.0,030.0,30.000,30.216,,15.5714,,15.5715,,15.5715,33.5986,,33.6044,33.5953,,33.5973,33.6009,5.5228,,5.7801,5.6928,5.4567,,5.7936,5.6696,5.6812,240.686,252.2103,208.1520,237.808,268.0990,206.4395,207.2958,0.1064,,0.6237,0.5482, ,, , ,24.7670,,24.7645,,0.8572,80.7102,,,,1.3084E+03,,-3.963E-03,,15.5668,15.5669,0.0871,317.895,97.283,96.117,,,,,,,,,,,,
CalCOFI,2101RL,029,,2101_029d,22-Jan-2021 21:03:59,22-Jan-2021 13:03:59,33.41774,-117.90356,090.0 030.0,090.0,030.0,31.000,31.224,,15.5671,,15.5671,,15.5671,33.5984,,33.6042,33.5950,,33.5970,33.6006,5.5109,,5.7676,5.6805,5.4423,,5.7783,5.6546,5.6676,240.170,251.6702,207.7399,237.178,267.5252,205.9346,206.8373,0.1078,,0.6351,0.5453, ,, , ,24.7678,,24.7653,,0.8559,80.7368,,,,1.2932E+03,,5.4200E-03,,15.5623,15.5623,0.0903,317.850,97.065,95.854,,,,,,,,,,,,
CalCOFI,2101RL,029,,2101_029d,22-Jan-2021 21:04:01,22-Jan-2021 13:04:01,33.41774,-117.90356,090.0 030.0,090.0,030.0,32.000,32.231,,15.5601,,15.5604,,15.5603,33.5976,,33.6034,33.5943,,33.5963,33.5999,5.5040,,5.7604,5.6734,5.4573,,5.7942,5.6702,5.6718,239.869,251.3551,207.4995,237.832,267.1905,206.4587,206.9791,0.1114,,0.6646,0.5355, ,, , ,24.7688,,24.7662,,0.8534,80.7881,,,,1.4781E+03,,8.4629E-03,,15.5552,15.5555,0.0935,317.790,96.930,96.105,,,,,,,,,,,,
CalCOFI,2101RL,029,,2101_029d,22-Jan-2021 21:04:03,22-Jan-2021 13:04:03,33.41774,-117.90356,090.0 030.0,090.0,030.0,33.000,33.238,,15.5545,,15.5544,,15.5545,33.5969,,33.6027,33.5936,,33.5956,33.5992,5.5071,,5.7636,5.6766,5.4316,,5.7669,5.6434,5.6600,240.004,251.4964,207.6073,236.713,267.3406,205.5620,206.5847,0.1116,,0.6663,0.5349, ,, , ,24.7696,,24.7671,,0.8504,80.8470,,,,1.5655E+03,,2.5050E-04,,15.5494,15.5493,0.0967,317.744,96.974,95.642,,,,,,,,,,,,
CalCOFI,2101RL,029,,2101_029d,22-Jan-2021 21:04:05,22-Jan-2021 13:04:05,33.41774,-117.90356,090.0 030.0,090.0,030.0,34.000,34.246,,15.5424,,15.5410,,15.5417,33.5957,,33.6015,33.5923,,33.5943,33.5979,5.4635,,5.7180,5.6317,5.4235,,5.7583,5.6349,5.6333,238.104,249.5075,206.0899,236.361,265.2278,205.2800,205.6850,0.1113,,0.6638,0.5358, ,, , ,24.7714,,24.7691,,0.8450,80.9568,,,,1.6729E+03,,-1.203E-06,,15.5372,15.5358,0.0999,317.608,96.182,95.473,,,,,,,,,,,,
CalCOFI,2101RL,029,,2101_029d,22-Jan-2021 21:04:08,22-Jan-2021 13:04:08,33.41776,-117.90356,090.0 030.0,090.0,030.0,35.000,35.253,,15.5189,,15.5140,,15.5165,33.5929,,33.5987,33.5893,,33.5913,33.5950,5.4477,,5.7015,5.6154,5.4052,,5.7389,5.6158,5.6156,237.411,248.7820,205.5364,235.560,264.4572,204.6381,205.0873,0.1162,,0.7040,0.5175, ,, , ,24.7745,,24.7728,,0.8393,81.0733,,,,1.7482E+03,,1.0000E-12,,15.5135,15.5086,0.1031,317.341,95.857,95.098,,,,,,,,,,,,
CalCOFI,2101RL,029,,2101_029d,22-Jan-2021 21:04:10,22-Jan-2021 13:04:10,33.41776,-117.90356,090.0 030.0,090.0,030.0,36.000,36.260,,15.4792,,15.4755,,15.4774,33.5885,,33.5943,33.5852,,33.5872,33.5908,5.3742,,5.6245,5.5397,5.3444,,5.6743,5.5524,5.5461,234.207,245.4281,202.9775,232.910,260.8943,202.5146,202.7461,0.1206,,0.7400,0.4961, ,, , ,24.7799,,24.7782,,0.8372,81.1160,,,,1.5523E+03,,1.0000E-12,,15.4737,15.4699,0.1063,316.852,94.487,93.955,,,,,,,,,,,,
CalCOFI,2101RL,029,,2101_029d,22-Jan-2021 21:04:12,22-Jan-2021 13:04:12,33.41776,-117.90356,090.0 030.0,090.0,030.0,37.000,37.267,,15.4083,,15.4031,,15.4057,33.5820,,33.5878,33.5786,,33.5806,33.5842,5.2149,,5.4578,5.3757,5.2332,,5.5562,5.4363,5.4060,227.264,238.1602,197.4324,228.063,253.1735,198.6305,198.0315,0.1258,,0.7826,0.4647, ,, , ,24.7906,,24.7892,,0.8299,81.2639,,,,1.4981E+03,,1.0000E-12,,15.4026,15.3975,0.1094,315.859,91.555,91.865,37,,33.5463,, ,,,,,,,
CalCOFI,2101RL,029,,2101_029d,22-Jan-2021 21:04:13,22-Jan-2021 13:04:13,33.41776,-117.90356,090.0 030.0,090.0,030.0,38.000,38.275,,15.2302,,15.2175,,15.2239,33.5665,,33.5723,33.5637,,33.5657,33.5690,5.1806,,5.4219,5.3404,5.1709,,5.4900,5.3712,5.3558,225.762,236.5879,196.2328,225.338,251.5033,196.4469,196.3399,0.1393,,0.8932,0.3522, ,, , ,24.8179,,24.8185,,0.8269,81.3240,,,,1.5054E+03,,1.0000E-12,,15.2245,15.2118,0.1126,313.284,90.622,90.428,,,,,,,,,,,,
CalCOFI,2101RL,029,,2101_029d,22-Jan-2021 21:04:15,22-Jan-2021 13:04:15,33.41776,-117.90356,090.0 030.0,090.0,030.0,39.000,39.282,,14.9887,,14.9777,,14.9832,33.5491,,33.5549,33.5459,,33.5479,33.5514,5.1860,,5.4276,5.3459,5.1533,,5.4713,5.3528,5.3494,225.991,236.8276,196.4157,224.564,251.7579,195.8267,196.1212,0.1342,,0.8514,0.4000, ,, , ,24.8572,,24.8571,,0.8250,81.3621,,,,1.4997E+03,,1.0000E-12,,14.9829,14.9718,0.1157,309.558,90.273,89.682,,,,,,,,,,,,
CalCOFI,2101RL,029,,2101_029d,22-Jan-2021 21:04:17,22-Jan-2021 13:04:17,33.41776,-117.90358,090.0 030.0,090.0,030.0,40.000,40.289,,14.8834,,14.8758,,14.8796,33.5439,,33.5497,33.5403,,33.5423,33.5460,5.1709,,5.4118,5.3304,5.1317,,5.4484,5.3303,5.3304,225.329,236.1346,195.8870,223.618,251.0218,195.0686,195.4778,0.1278,,0.7990,0.4508, ,, , ,24.8761,,24.8749,,0.8145,81.5763,,,,1.5136E+03,,1.0000E-12,,14.8774,14.8698,0.1189,307.785,89.819,89.121,,,,,,,,,,,,
CalCOFI,2101RL,029,,2101_029d,22-Jan-2021 21:04:19,22-Jan-2021 13:04:19,33.41776,-117.90358,090.0 030.0,090.0,030.0,41.000,41.297,,14.7996,,14.7995,,14.7996,33.5403,,33.5461,33.5369,,33.5389,33.5425,5.1555,,5.3956,5.3145,5.1063,,5.4214,5.3038,5.3092,224.654,235.4280,195.3479,222.510,250.2712,194.1807,194.7643,0.1162,,0.7040,0.5175, ,, , ,24.8913,,24.8888,,0.8038,81.7959,,,,1.6637E+03,,1.0000E-12,,14.7935,14.7934,0.1220,306.354,89.399,88.544,,,,,,,,,,,,
CalCOFI,2101RL,029,,2101_029d,22-Jan-2021 21:04:21,22-Jan-2021 13:04:21,33.41776,-117.90358,090.0 030.0,090.0,030.0,42.000,42.304,,14.7532,,14.7451,,14.7492,33.5387,,33.5445,33.5349,,33.5369,33.5407,5.1415,,5.3810,5.3001,5.0891,,5.4031,5.2858,5.2930,224.040,234.7853,194.8575,221.759,249.5884,193.5789,194.2182,0.1094,,0.6482,0.5413, ,, , ,24.9001,,24.8989,,0.7959,81.9580,,,,1.9369E+03,,1.0000E-12,,14.7469,14.7389,0.1250,305.546,89.072,88.149,,,,,,,,,,,,
CalCOFI,2101RL,029,,2101_029d,22-Jan-2021 21:04:23,22-Jan-2021 13:04:23,33.41776,-117.90358,090.0 030.0,090.0,030.0,43.000,43.311,,14.6957,,14.6902,,14.6930,33.5368,,33.5426,33.5333,,33.5353,33.5390,5.1347,,5.3739,5.2931,5.0953,,5.4097,5.2923,5.2927,223.740,234.4712,194.6179,222.027,249.2548,193.7937,194.2058,0.1020,,0.5876,0.5544, ,, , ,24.9111,,24.9095,,0.7869,82.1417,,,,2.0401E+03,,1.0000E-12,,14.6893,14.6839,0.1281,304.530,88.850,88.158,,,,,,,,,,,,
CalCOFI,2101RL,029,,2101_029d,22-Jan-2021 21:04:25,22-Jan-2021 13:04:25,33.41776,-117.90358,090.0 030.0,090.0,030.0,44.000,44.319,,14.6586,,14.6561,,14.6574,33.5360,,33.5418,33.5327,,33.5347,33.5383,5.1514,,5.3914,5.3103,5.1044,,5.4194,5.3018,5.3061,224.467,235.2323,195.1985,222.421,250.0632,194.1094,194.6540,0.0992,,0.5647,0.5558, ,, , ,24.9184,,24.9164,,0.7825,82.2328,,,,1.8745E+03,,1.0000E-12,,14.6521,14.6496,0.1312,303.861,89.073,88.255,,,,,,,,,,,,
CalCOFI,2101RL,029,,2101_029d,22-Jan-2021 21:04:27,22-Jan-2021 13:04:27,33.41777,-117.90358,090.0 030.0,090.0,030.0,45.000,45.326,,14.6268,,14.6272,,14.6270,33.5355,,33.5413,33.5321,,33.5341,33.5377,5.1434,,5.3830,5.3021,5.0967,,5.4112,5.2937,5.2979,224.119,234.8680,194.9206,222.083,249.6762,193.8386,194.3796,0.0959,,0.5376,0.5551, ,, , ,24.9248,,24.9221,,0.7831,82.2204,,,,1.5884E+03,,1.0000E-12,,14.6202,14.6205,0.1342,303.278,88.878,88.070,,,,,,,,,,,,
CalCOFI,2101RL,029,,2101_029d,22-Jan-2021 21:04:29,22-Jan-2021 13:04:29,33.41778,-117.90358,090.0 030.0,090.0,030.0,46.000,46.333,,14.6130,,14.6078,,14.6104,33.5353,,33.5411,33.5320,,33.5340,33.5376,5.1178,,5.3562,5.2757,5.0922,,5.4064,5.2890,5.2824,223.000,233.6966,194.0269,221.888,248.4319,193.6823,193.8546,0.0922,,0.5073,0.5511, ,, , ,24.9276,,24.9262,,0.7784,82.3171,,,,1.3772E+03,,1.0000E-12,,14.6063,14.6010,0.1373,303.038,88.410,87.958,,,,,,,,,,,,
CalCOFI,2101RL,029,,2101_029d,22-Jan-2021 21:04:31,22-Jan-2021 13:04:31,33.41778,-117.90356,090.0 030.0,090.0,030.0,47.000,47.341,,14.5632,,14.5601,,14.5617,33.5343,,33.5401,33.5311,,33.5331,33.5366,5.0999,,5.3375,5.2573,5.0601,,5.3723,5.2555,5.2564,222.220,232.8801,193.4039,220.485,247.5645,192.5580,192.9810,0.0882,,0.4745,0.5430, ,, , ,24.9375,,24.9357,,0.7689,82.5118,,,,1.5592E+03,,1.0000E-12,,14.5563,14.5532,0.1403,302.123,88.013,87.319,,,,,,,,,,,,
CalCOFI,2101RL,029,,2101_029d,22-Jan-2021 21:04:32,22-Jan-2021 13:04:32,33.41778,-117.90356,090.0 030.0,090.0,030.0,48.000,48.348,,14.5363,,14.5367,,14.5365,33.5348,,33.5406,33.5314,,33.5334,33.5370,5.0645,,5.3004,5.2208,5.0192,,5.3289,5.2128,5.2168,220.678,231.2659,192.1724,218.702,245.8498,191.1293,191.6509,0.0858,,0.4549,0.5362, ,, , ,24.9437,,24.9409,,0.7678,82.5341,,,,1.9811E+03,,1.0000E-12,,14.5293,14.5296,0.1434,301.564,87.356,86.572,,,,,,,,,,,,
CalCOFI,2101RL,029,,2101_029d,22-Jan-2021 21:04:34,22-Jan-2021 13:04:34,33.41778,-117.90356,090.0 030.0,090.0,030.0,49.000,49.356,,14.4968,,14.4845,,14.4907,33.5336,,33.5394,33.5307,,33.5327,33.5361,4.9290,,5.1586,5.0813,4.9228,,5.2265,5.1122,5.0968,214.772,225.0835,187.4555,214.500,239.2822,187.7621,187.6088,0.0895,,0.4852,0.5460, ,, , ,24.9512,,24.9515,,0.7660,82.5718,,,,2.0250E+03,,1.0000E-12,,14.4896,14.4773,0.1464,300.874,84.951,84.821,,,,,,,,,,,,
CalCOFI,2101RL,029,,2101_029d,22-Jan-2021 21:04:36,22-Jan-2021 13:04:36,33.41778,-117.90356,090.0 030.0,090.0,030.0,50.000,50.363,,14.3382,,14.3265,,14.3324,33.5283,,33.5341,33.5258,,33.5278,33.5310,4.8337,,5.0589,4.9831,4.8218,,5.1192,5.0067,4.9949,210.611,220.7278,184.1323,210.093,234.6551,184.2306,184.1815,0.0794,,0.4024,0.5114, ,, , ,24.9807,,24.9812,,0.7618,82.6585,,,,1.7238E+03,,1.0000E-12,,14.3309,14.3192,0.1494,298.084,83.039,82.814,50,,33.5399,4.747,206.97,0.390,0.279,,,,,
CalCOFI,2101RL,029,,2101_029d,22-Jan-2021 21:04:38,22-Jan-2021 13:04:38,33.41778,-117.90356,090.0 030.0,090.0,030.0,51.000,51.370,,14.2141,,14.2116,,14.2129,33.5277,,33.5335,33.5236,,33.5256,33.5296,4.8334,,5.0585,4.9828,4.7881,,5.0834,4.9716,4.9772,210.594,220.7100,184.1187,208.622,234.6362,183.0518,183.5853,0.0797,,0.4049,0.5128, ,, , ,25.0063,,25.0036,,0.7584,82.7285,,,,1.6596E+03,,1.0000E-12,,14.2067,14.2042,0.1524,295.666,82.826,82.044,,,,,,,,,,,,
CalCOFI,2101RL,029,,2101_029d,22-Jan-2021 21:04:40,22-Jan-2021 13:04:40,33.41778,-117.90356,090.0 030.0,090.0,030.0,52.000,52.378,,14.1506,,14.1388,,14.1447,33.5302,,33.5360,33.5233,,33.5253,33.5307,4.8060,,5.0299,4.9546,4.7586,,5.0521,4.9408,4.9477,209.396,219.4559,183.1619,207.334,233.3040,182.0197,182.5908,0.0790,,0.3991,0.5095, ,, , ,25.0216,,25.0187,,0.7541,82.8167,,,,1.7257E+03,,1.0000E-12,,14.1431,14.1313,0.1554,294.233,82.252,81.419,,,,,,,,,,,,
CalCOFI,2101RL,029,,2101_029d,22-Jan-2021 21:04:42,22-Jan-2021 13:04:42,33.41778,-117.90356,090.0 030.0,090.0,030.0,53.000,53.385,,14.0920,,14.0900,,14.0910,33.5266,,33.5324,33.5230,,33.5250,33.5287,4.7391,,4.9598,4.8857,4.7096,,5.0001,4.8896,4.8877,206.481,216.4045,180.8338,205.196,230.0625,180.3065,180.5702,0.0743,,0.3606,0.4844, ,, , ,25.0310,,25.0286,,0.7545,82.8094,,,,1.6629E+03,,1.0000E-12,,14.0844,14.0824,0.1583,293.357,81.010,80.500,,,,,,,,,,,,